This is the latest recevied weather packets stored in our database for station/object N4NVD-13. If no packets are shown the sender has not sent any weather packets the latest 10 day(s).
| Time | Temp. | Humidity | Pressure | Rain* | Wind** | Luminosity | Snow |
|---|---|---|---|---|---|---|---|
| 1777295900 | 25° C | 96% | 1008.7 hPa | 0 mm | - | 111 W/m² | - |
| 1777295597 | 25° C | 96% | 1008.8 hPa | 0 mm | - | 83 W/m² | - |
| 1777295294 | 25° C | 97% | 1008.6 hPa | 0 mm | - | 71 W/m² | - |
| 1777294993 | 25° C | 97% | 1008.7 hPa | 0 mm | - | 86 W/m² | - |
| 1777294689 | 25° C | 97% | 1008.7 hPa | 0 mm | - | 78 W/m² | - |
| 1777294384 | 25° C | 97% | 1008.6 hPa | 0 mm | - | 59 W/m² | - |
| 1777294081 | 25° C | 97% | 1008.6 hPa | 0 mm | - | 59 W/m² | - |
| 1777293778 | 25° C | 98% | 1008.5 hPa | 0 mm | - | 50 W/m² | - |
| 1777293472 | 24.44° C | 98% | 1008.3 hPa | 0 mm | - | 44 W/m² | - |
| 1777293168 | 24.44° C | 98% | 1008.4 hPa | 0 mm | - | 42 W/m² | - |
| 1777292867 | 24.44° C | 98% | 1008.4 hPa | 0 mm | - | 31 W/m² | - |
| 1777292564 | 24.44° C | 98% | 1008.1 hPa | 0 mm | - | 28 W/m² | - |
| 1777292259 | 24.44° C | 99% | 1008 hPa | 0 mm | - | 18 W/m² | - |
| 1777291956 | 24.44° C | 99% | 1008 hPa | 0 mm | - | 11 W/m² | - |
| 1777291653 | 23.89° C | 99% | 1008 hPa | 0 mm | - | 7 W/m² | - |
| 1777291351 | 23.89° C | 99% | 1008.1 hPa | 0 mm | - | 5 W/m² | - |
| 1777291047 | 23.89° C | 99% | 1007.9 hPa | 0 mm | - | 2 W/m² | - |
| 1777290744 | 23.89° C | 99% | 1007.8 hPa | 0 mm | - | 1 W/m² | - |
| 1777290440 | 23.89° C | 99% | 1007.9 hPa | 0 mm | - | 0 W/m² | - |
| 1777290136 | 23.89° C | 99% | 1007.6 hPa | 0 mm | - | 0 W/m² | - |
| 1777289833 | 23.89° C | 99% | 1007.4 hPa | 0 mm | - | 0 W/m² | - |
| 1777289529 | 23.89° C | 99% | 1007.2 hPa | 0 mm | - | 0 W/m² | - |
| 1777289224 | 23.89° C | 99% | 1007.2 hPa | 0 mm | - | 0 W/m² | - |
| 1777288921 | 23.89° C | 99% | 1007.5 hPa | 0 mm | - | 0 W/m² | - |
| 1777288618 | 23.89° C | 99% | 1007.4 hPa | 0 mm | - | 0 W/m² | - |
* Rain latest hour (hover to see other rain measurements)
** Current wind speed in m/s (hover to see current wind gust speed)